Location: La Fredeussais
(48.1780°N, 1.3980°W)
Time: 08:28:52
(UTC+00:00)

Intercosmos 25 Rocket - Pass Details

Date: 09 May 2021
Orbit: 435 x 2984 km, 82.6° (Epoch: 12 June)

Event Time Altitude Azimuth Distance (km) Brightness Sun altitude
Rises 20:03:42 0° 349° (N) 4,556 8.7 -5.5°
Reaches altitude 10° 20:07:13 10° 351° (N) 3,172 7.9 -6.0°
Maximum altitude 20:14:08 86° 79° (E) 809 4.1 -7.0°
Drops below altitude 10° 20:18:19 10° 170° (S) 1,954 5.7 -7.5°
Enters shadow 20:19:43 - 170° (S) 2,541 6.3 -7.7°
